{"data":{"norad_id":64110,"intl_designator":"2025-110Q","name":"STARLINK-34145","alt_names":[],"object_type":"PAYLOAD","status":"ACTIVE","operator":null,"country":"US","launch_date":"2025-05-23","launch_site_code":"AFWTR","launch_vehicle":null,"mission":null,"orbit_class":"UNKNOWN","rcs_meters":null,"size_class":null,"mass_kg":null,"dimensions":null,"purposes":["comms"],"wikipedia_slug":null,"has_3d_model":false,"image_url":null,"decayed_at":null,"tle_current":{"epoch":"2026-09-20T08:01:18.487200Z","epoch_age_seconds":154698,"freshness":"FRESH","line1":"1 64110U 25110Q   26263.33424175  .00014038  00000+0  42547-3 0  9999","line2":"2 64110  53.1605 198.3909 0001221 131.8964 228.2143 15.34427805 75745","mean_motion":15.34427805,"eccentricity":0.0001221,"inclination_deg":53.1605,"raan_deg":198.3909,"arg_perigee_deg":131.8964,"mean_anomaly_deg":228.2143,"bstar":0.00042547,"rev_number":7574,"period_min":93.846057488511,"perigee_km":461.78534263257,"apogee_km":463.45585563828,"semimajor_km":6840.7575991354,"source":"CELESTRAK","updated_at":"2026-09-21T09:00:35.229364Z"}}}